Weather History for Ponce, PR

Change the Weather History Date:

Friday, April 5, 2013

  Actual Average Record
Temperature  
Mean Temperature 81 °F -  
Max Temperature 89 °F 85 °F 89 °F (1997)
Min Temperature 73 °F 68 °F 64 °F (1999)
Cooling Degree Days 16    
Growing Degree Days 31 (Base 50)    
Moisture  
Dew Point 70 °F    
Average Humidity 74    
Maximum Humidity 89    
Minimum Humidity 59    
Precipitation  
Precipitation 0.00 in - - ()
Sea Level Pressure  
Sea Level Pressure 30.00 in    
Wind  
Wind Speed 6 mph (ESE)    
Max Wind Speed 14 mph    
Max Gust Speed 21 mph    
Visibility 9 miles    
Events Rain    
Averages and records for this station are not official NWS values.
T = Trace of Precipitation, MM = Missing Value Source: NWS Daily Summary

Daily Weather History Graph

Daily Weather History Graph

Search for Another Location

Airport:

Trip Planner

Search our weather history database for the weather conditions in past years. The results will help you decide how hot, cold, wet, or windy it might be!

Date:

Astronomy

Apr. 05, 2013 Rise Set
Actual Time 6:17 AM AST 6:40 PM AST
Civil Twilight 5:55 AM AST 7:02 PM AST
Nautical Twilight 5:29 AM AST 7:28 PM AST
Astronomical Twilight 5:03 AM AST 7:54 PM AST
Moon 2:42 AM AST (4/5) 2:36 PM AST (4/5)
Length of Visible Light 13h 07m
Length of Day
12h 23m
Waning Crescent, 24% of the Moon is Illuminated
Apr 5
Waning Crescent
Apr 10
New
Apr 18
First Quarter
Apr 25
Full
May 2
Last Quarter

Hourly Weather History & Observations

Time (AST) Temp. Heat Index Dew Point Humidity Pressure Visibility Wind Dir Wind Speed Gust Speed Precip Events Conditions
1:50 AM 73.4 °F - 66.2 °F 78% 30.00 in 8.0 mi Calm Calm - N/A   Clear
3:50 AM 73.4 °F - 66.2 °F 78% 29.97 in 8.0 mi NE 5.8 mph - N/A   Clear
4:50 AM 73.4 °F - 66.2 °F 78% 29.97 in 8.0 mi Calm Calm - N/A   Partly Cloudy
5:50 AM 73.4 °F - 66.2 °F 78% 29.98 in 8.0 mi ENE 6.9 mph - N/A   Mostly Cloudy
6:50 AM 73.4 °F - 66.2 °F 78% 30.02 in 8.0 mi Calm Calm - N/A   Mostly Cloudy
7:50 AM 75.2 °F - 71.6 °F 89% 30.03 in 8.0 mi East 9.2 mph - N/A Rain Light Rain
8:50 AM 78.8 °F - 71.6 °F 78% 30.04 in 10.0 mi ESE 9.2 mph - N/A   Mostly Cloudy
10:50 AM 82.4 °F 87.2 °F 71.6 °F 70% 30.05 in 10.0 mi SE 11.5 mph - N/A   Mostly Cloudy
11:50 AM 87.8 °F 95.6 °F 73.4 °F 62% 30.05 in 10.0 mi SE 11.5 mph 20.7 mph N/A   Mostly Cloudy
12:50 PM 89.6 °F 98.2 °F 73.4 °F 59% 30.03 in 10.0 mi SE 11.5 mph 20.7 mph N/A   Mostly Cloudy
1:50 PM 87.8 °F 95.6 °F 73.4 °F 62% 30.01 in 10.0 mi South 11.5 mph 20.7 mph N/A   Mostly Cloudy
3:50 PM 87.8 °F 97.6 °F 75.2 °F 66% 29.95 in 10.0 mi SE 13.8 mph - N/A   Scattered Clouds
4:50 PM 84.2 °F 90.9 °F 73.4 °F 70% 29.94 in 10.0 mi SE 11.5 mph - N/A   Scattered Clouds
5:50 PM 82.4 °F 88.2 °F 73.4 °F 74% 29.94 in 10.0 mi SE 11.5 mph - N/A   Scattered Clouds
6:50 PM 80.6 °F 85.4 °F 73.4 °F 79% 29.95 in 10.0 mi ESE 9.2 mph - N/A   Partly Cloudy
7:50 PM 78.8 °F - 71.6 °F 78% 29.97 in 10.0 mi East 8.1 mph - N/A   Partly Cloudy
8:50 PM 77.0 °F - 71.6 °F 83% 30.00 in 10.0 mi East 6.9 mph - N/A   Clear
9:50 PM 75.2 °F - 69.8 °F 83% 30.01 in 10.0 mi ENE 4.6 mph - N/A   Clear
10:50 PM 73.4 °F - 62.6 °F 69% 30.01 in 8.0 mi Calm Calm - N/A   Clear
11:50 PM 73.4 °F - 62.6 °F 69% 30.01 in 8.0 mi ENE 5.8 mph - N/A   Clear